Flag for U.S.A. Weather past 2 weeks in Colorado Springs, Colorado, U.S.A.

Now
58 °F

Clear.


Feels Like: 58 °F
Forecast: 50 / 76 °F
Wind: 5 mph from West

Location: City Of Colorado Springs Municipal Airport

Current Time: Sep 23, 2014 at 12:47:42 AM

Latest Report: Sep 22, 2014 at 11:54 PM


Visibility: 10 mi

Pressure: 30.00 "Hg

Humidity: 72%

Dew point: 49 °F

Location of Colorado SpringsLocation

Historic Weather in Colorado Springs — Graph

°F

Colorado Springs temperature yesterday

Maximum temperature yesterday: 73 °F (at 3:54 PM)
Minimum temperature yesterday: 55 °F (at 5:54 AM)
Average temperature yesterday: 63 °F

Past Weeks' High & Low Weather Summary

 TemperatureHumidityPressure
High88 °F (Sep 16, 2:54 PM)93% (Sep 13, 3:54 AM)30.49 "Hg (Sep 13, 3:54 AM)
Low35 °F (Sep 12, 5:54 AM)10% (Sep 14, 1:54 PM)29.61 "Hg (Sep 9, 2:54 PM)
Average63 °F52%30.01 "Hg
* Reported Sep 7 10:54 PM — Sep 22 10:54 PM, Colorado Springs, Weather by CustomWeather, © 2014

Note: Actual official high and low records may vary slightly from our data, if they occured in-between our weather recording intervals... More about our weather records

Advertising

Colorado Springs weather history for previous 24 hours

 ConditionsComfort  
Time TempWeatherWind HumidityBarometerVisibility
10:54 PM
Sep 22
58 °FClear.7 mph72%30.01 "Hg10 mi
9:54 PM61 °FPassing clouds.8 mph67%30.02 "Hg10 mi
8:54 PM63 °FPassing clouds.5 mph63%30.00 "Hg10 mi
7:54 PM66 °FScattered clouds.8 mph56%29.98 "Hg10 mi
6:54 PM68 °FScattered clouds.10 mph51%29.96 "Hg10 mi
5:54 PM73 °FScattered clouds.17 mph43%29.93 "Hg10 mi
4:54 PM73 °FBroken clouds.14 mph43%29.95 "Hg10 mi
3:54 PM73 °FPartly sunny.12 mph46%29.96 "Hg10 mi
2:54 PM68 °FLight rain. Partly sunny.7 mph55%29.99 "Hg10 mi
1:54 PM69 °FBroken clouds.6 mph53%30.01 "Hg10 mi
12:54 PM66 °FBroken clouds.7 mph61%30.04 "Hg10 mi
11:54 AM65 °FBroken clouds.7 mph63%30.08 "Hg10 mi
10:54 AM61 °FPartly sunny.7 mph67%30.11 "Hg10 mi
9:54 AM57 °FPartly sunny.3 mph72%30.13 "Hg10 mi
8:54 AM56 °FPartly sunny.6 mph72%30.13 "Hg10 mi
7:54 AM56 °FBroken clouds.5 mph70%30.11 "Hg10 mi
6:54 AM55 °FPartly cloudy.3 mph69%30.12 "Hg10 mi
5:54 AM55 °FPartly cloudy.6 mph69%30.13 "Hg10 mi
4:54 AM57 °FPassing clouds.9 mph62%30.12 "Hg10 mi
3:54 AM58 °FMostly cloudy.8 mph56%30.14 "Hg10 mi
2:54 AM59 °FMostly cloudy.10 mph54%30.14 "Hg10 mi
1:54 AM60 °FOvercast.9 mph49%30.16 "Hg10 mi
12:54 AM61 °FPassing clouds.12 mph48%30.18 "Hg10 mi
Weather by CustomWeather, © 2014

See weather overviewHow to use our weather pages